STARLINK-31287

decayed
NORAD ID: 58950 Int'l Des: 2024-027 Owner: SPXS Country: US Constellation: starlink
LEOCIRCULAR
グループ

STARLINK-31287について

説明を読み込み中...

高度履歴

Altitude vs Time

uPlot chart will show altitude changes over time

軌道要素

1 58950U 24027V 24064.42137150 .83069799 12477-4 23961-2 0 9990
2 58950 53.1544 117.4851 0002550 154.2026 326.7997 16.45373278 4429
Epoch: Mar 4, 2024 • Age: 13518 hours

現在のステータス

Position data unavailable
打ち上げ日 Feb 10, 2024
運用期間 1.6 years
落下予定日 Mar 4, 2024
タイプ internet

技術仕様

分類 Payload
質量 730.00 kg
乾燥質量 700.00 kg
総質量 730.00 kg
長さ 0.30 m
直径 4.10 m
スパン 29.00 m
形状 Box + pan
製造者 SPXS
バスタイプ Starlink V2M
フェーズステータス Unknown Transfer Status
所有者/国 SPXS/US

大規模コンステレーション

Loading constellations...